Buckeye, AZ

9:52 PM MST on July 23, 2019 (GMT -0700)
Buckeye Municipal

Weather History for KBXK - May, 2019

Change the Weather History Date:

Monday, May 20, 2019

  Actual Average (KGYR) Record (KGYR)
Temperature  
Mean Temperature 65 °F -  
Max Temperature 75 °F 94 °F 107 °F (2005)
Min Temperature 55 °F 64 °F 62 °F (2011)
Growing Degree Days 15 (Base 50)    
Moisture  
Dew Point 32 °F    
Average Humidity 31    
Maximum Humidity 51    
Minimum Humidity 15    
Precipitation  
Precipitation 0.00 in - - ()
Sea Level Pressure  
Sea Level Pressure 29.78 in    
Wind  
Wind Speed 11 mph (WSW)    
Max Wind Speed 18 mph    
Max Gust Speed 30 mph    
Visibility 10 miles    
Events      
Averages and records for this station are not official NWS values.
T = Trace of Precipitation, MM = Missing Value Source: NWS Daily Summary

Daily Weather History Graph

Daily Weather History Graph

Search for Another Location

Airport or City:

Astronomy

May. 20, 2019 Rise Set
Actual Time 5:27 AM MST 7:27 PM MST
Civil Twilight 4:59 AM MST 7:55 PM MST
Nautical Twilight 4:26 AM MST 8:29 PM MST
Astronomical Twilight 3:50 AM MST 9:05 PM MST
Moon 9:30 PM MST (5/20) 6:59 AM MST (5/20)
Length of Visible Light 14h 55m
Length of Day
14h 00m
Waning Gibbous, 96% of the Moon is Illuminated
May 20
Waning Gibbous
May 26
Last Quarter
Jun 3
New
Jun 9
First Quarter
Jun 17
Full

Hourly Weather History & Observations

Time (MST) Temp. Dew Point Humidity Pressure Visibility Wind Dir Wind Speed Gust Speed Precip Events Conditions
12:15 AM 66.2 °F 39.2 °F 37% 29.75 in 10.0 mi WSW 11.5 mph - N/A   Overcast
12:35 AM 64.4 °F 35.6 °F 34% 29.75 in 10.0 mi West 12.7 mph - N/A   Unknown
12:55 AM 64.4 °F 33.8 °F 32% 29.75 in 10.0 mi WSW 13.8 mph 20.7 mph N/A   Mostly Cloudy
1:15 AM 64.4 °F 33.8 °F 32% 29.75 in 10.0 mi WSW 12.7 mph - N/A   Mostly Cloudy
1:35 AM 62.6 °F 33.8 °F 34% 29.74 in 10.0 mi SW 12.7 mph 21.9 mph N/A   Mostly Cloudy
1:55 AM 62.6 °F 32.0 °F 32% 29.74 in 10.0 mi West 9.2 mph - N/A   Mostly Cloudy
2:15 AM 62.6 °F 33.8 °F 34% 29.74 in 10.0 mi SW 10.4 mph - N/A   Overcast
2:35 AM 59.0 °F 33.8 °F 39% 29.74 in 10.0 mi SW 10.4 mph - N/A   Mostly Cloudy
2:55 AM 59.0 °F 35.6 °F 42% 29.74 in 10.0 mi WSW 4.6 mph - N/A   Mostly Cloudy
3:15 AM 59.0 °F 33.8 °F 39% 29.74 in 10.0 mi SW 9.2 mph - N/A   Mostly Cloudy
3:35 AM 59.0 °F 35.6 °F 42% 29.74 in 10.0 mi SW 10.4 mph - N/A   Mostly Cloudy
3:55 AM 59.0 °F 35.6 °F 42% 29.74 in 10.0 mi SW 8.1 mph - N/A   Mostly Cloudy
4:15 AM 57.2 °F 35.6 °F 44% 29.74 in 10.0 mi SW 8.1 mph - N/A   Unknown
4:35 AM 57.2 °F 35.6 °F 44% 29.74 in 10.0 mi SW 8.1 mph - N/A   Unknown
4:55 AM 57.2 °F 35.6 °F 44% 29.74 in 10.0 mi SW 6.9 mph - N/A   Overcast
5:15 AM 57.2 °F 35.6 °F 44% 29.74 in 10.0 mi SW 5.8 mph - N/A   Mostly Cloudy
5:35 AM 55.4 °F 37.4 °F 51% 29.75 in 8.0 mi SSW 4.6 mph - N/A   Partly Cloudy
5:55 AM 55.4 °F 37.4 °F 51% 29.76 in 7.0 mi South 4.6 mph - N/A   Clear
6:15 AM 57.2 °F 37.4 °F 48% 29.76 in 8.0 mi SSW 8.1 mph - N/A   Clear
6:35 AM 57.2 °F 37.4 °F 48% 29.77 in 9.0 mi SW 6.9 mph - N/A   Scattered Clouds
6:55 AM 59.0 °F 37.4 °F 45% 29.78 in 10.0 mi SW 9.2 mph - N/A   Partly Cloudy
7:15 AM 59.0 °F 37.4 °F 45% 29.78 in 9.0 mi SW 10.4 mph 16.1 mph N/A   Clear
7:35 AM 60.8 °F 37.4 °F 42% 29.79 in 10.0 mi WSW 9.2 mph - N/A   Clear
7:55 AM 62.6 °F 37.4 °F 39% 29.79 in 10.0 mi WSW 11.5 mph - N/A   Clear
8:15 AM 62.6 °F 35.6 °F 37% 29.79 in 10.0 mi SW 9.2 mph - N/A   Clear
8:35 AM 62.6 °F 35.6 °F 37% 29.80 in 10.0 mi WSW 11.5 mph - N/A   Mostly Cloudy
8:55 AM 64.4 °F 35.6 °F 34% 29.80 in 10.0 mi WSW 12.7 mph - N/A   Partly Cloudy
9:15 AM 66.2 °F 35.6 °F 32% 29.80 in 9.0 mi West 10.4 mph 16.1 mph N/A   Clear
9:35 AM 64.4 °F 35.6 °F 34% 29.80 in 10.0 mi West 13.8 mph - N/A   Mostly Cloudy
9:55 AM 66.2 °F 35.6 °F 32% 29.80 in 10.0 mi SW 8.1 mph 17.3 mph N/A   Mostly Cloudy
10:15 AM 66.2 °F 35.6 °F 32% 29.80 in 10.0 mi WNW 12.7 mph 18.4 mph N/A   Mostly Cloudy
10:35 AM 66.2 °F 35.6 °F 32% 29.80 in 10.0 mi West 11.5 mph 17.3 mph N/A   Mostly Cloudy
10:55 AM 66.2 °F 33.8 °F 30% 29.81 in 10.0 mi WNW 11.5 mph 17.3 mph N/A   Scattered Clouds
11:15 AM 68.0 °F 32.0 °F 26% 29.80 in 10.0 mi West 10.4 mph 18.4 mph N/A   Mostly Cloudy
11:35 AM 69.8 °F 33.8 °F 27% 29.80 in 10.0 mi SW 13.8 mph - N/A   Mostly Cloudy
11:55 AM 68.0 °F 33.8 °F 28% 29.80 in 10.0 mi SW 9.2 mph 19.6 mph N/A   Mostly Cloudy
12:15 PM 68.0 °F 33.8 °F 28% 29.80 in 10.0 mi SSW 11.5 mph - N/A   Mostly Cloudy
12:35 PM 69.8 °F 32.0 °F 25% 29.80 in 10.0 mi WSW 12.7 mph 20.7 mph N/A   Partly Cloudy
12:55 PM 71.6 °F 32.0 °F 23% 29.80 in 10.0 mi SW 9.2 mph 23.0 mph N/A   Partly Cloudy
1:15 PM 71.6 °F 32.0 °F 23% 29.79 in 10.0 mi SW 16.1 mph 21.9 mph N/A   Scattered Clouds
1:35 PM 71.6 °F 30.2 °F 22% 29.79 in 10.0 mi SW 15.0 mph 23.0 mph N/A   Partly Cloudy
1:55 PM 71.6 °F 28.4 °F 20% 29.78 in 10.0 mi WSW 16.1 mph 21.9 mph N/A   Partly Cloudy
2:15 PM 71.6 °F 30.2 °F 22% 29.78 in 10.0 mi SW 15.0 mph 24.2 mph N/A   Scattered Clouds
2:35 PM 73.4 °F 28.4 °F 19% 29.77 in 10.0 mi WSW 17.3 mph 24.2 mph N/A   Scattered Clouds
2:55 PM 73.4 °F 26.6 °F 18% 29.77 in 10.0 mi West 16.1 mph 21.9 mph N/A   Scattered Clouds
3:15 PM 73.4 °F 26.6 °F 18% 29.77 in 10.0 mi SW 18.4 mph 27.6 mph N/A   Partly Cloudy
3:35 PM 75.2 °F 28.4 °F 18% 29.77 in 10.0 mi WNW 16.1 mph 21.9 mph N/A   Scattered Clouds
3:55 PM 75.2 °F 26.6 °F 17% 29.77 in 10.0 mi West 15.0 mph 28.8 mph N/A   Partly Cloudy
4:15 PM 75.2 °F 26.6 °F 17% 29.77 in 10.0 mi WSW 12.7 mph 20.7 mph N/A   Clear
4:35 PM 73.4 °F 26.6 °F 18% 29.77 in 10.0 mi WNW 15.0 mph 20.7 mph N/A   Mostly Cloudy
4:55 PM 75.2 °F 24.8 °F 15% 29.77 in 10.0 mi WNW 15.0 mph 29.9 mph N/A   Mostly Cloudy
5:15 PM 75.2 °F 24.8 °F 15% 29.78 in 10.0 mi West 18.4 mph 23.0 mph N/A   Scattered Clouds
5:35 PM 73.4 °F 24.8 °F 16% 29.78 in 10.0 mi West 11.5 mph 20.7 mph N/A   Scattered Clouds
5:55 PM 75.2 °F 24.8 °F 15% 29.78 in 10.0 mi WNW 12.7 mph 23.0 mph N/A   Scattered Clouds
6:15 PM 73.4 °F 24.8 °F 16% 29.78 in 10.0 mi West 15.0 mph 21.9 mph N/A   Partly Cloudy
6:35 PM 73.4 °F 24.8 °F 16% 29.79 in 10.0 mi WNW 13.8 mph 20.7 mph N/A   Clear
6:55 PM 73.4 °F 24.8 °F 16% 29.79 in 10.0 mi WNW 11.5 mph - N/A   Clear
7:15 PM 71.6 °F 26.6 °F 19% 29.80 in 10.0 mi West 6.9 mph - N/A   Clear
7:35 PM 68.0 °F 26.6 °F 21% 29.80 in 10.0 mi West 6.9 mph - N/A   Clear
7:55 PM 68.0 °F 26.6 °F 21% 29.80 in 10.0 mi WSW 5.8 mph - N/A   Clear
8:15 PM 66.2 °F 28.4 °F 24% 29.81 in 10.0 mi SSW 5.8 mph - N/A   Clear
8:35 PM 64.4 °F 32.0 °F 30% 29.81 in 5.0 mi SSW 5.8 mph - N/A   Scattered Clouds
8:55 PM 66.2 °F 32.0 °F 28% 29.81 in 8.0 mi SW 4.6 mph - N/A   Scattered Clouds
9:15 PM 64.4 °F 28.4 °F 26% 29.82 in 9.0 mi Calm Calm - N/A   Mostly Cloudy
9:35 PM 64.4 °F 28.4 °F 26% 29.83 in 10.0 mi SW 8.1 mph - N/A   Mostly Cloudy
9:55 PM 62.6 °F 32.0 °F 32% 29.84 in 7.0 mi SSW 8.1 mph - N/A   Unknown
10:15 PM 64.4 °F 33.8 °F 32% 29.84 in 10.0 mi SW 12.7 mph - N/A   Partly Cloudy
10:35 PM 64.4 °F 35.6 °F 34% 29.84 in 10.0 mi SW 11.5 mph - N/A   Clear
10:55 PM 62.6 °F 37.4 °F 39% 29.84 in 10.0 mi SSW 5.8 mph - N/A   Clear
11:15 PM 64.4 °F 35.6 °F 34% 29.84 in 10.0 mi WSW 10.4 mph - N/A   Clear
11:35 PM 60.8 °F 37.4 °F 42% 29.84 in 9.0 mi SSW 3.5 mph - N/A   Unknown
11:55 PM 59.0 °F 37.4 °F 45% 29.84 in 10.0 mi South 10.4 mph - N/A   Clear